Location: Doln� Folmava
(49.3521°N, 12.8502°E)
Time: 20:11:13
(UTC+00:00)

Daily predictions for brighter satellites

Satellite Brightness Start Highest point End
(mag) Time Altitude Azimuth Time Altitude Azimuth Time Altitude Azimuth
ADEOS Rocket 3.7 15:38:43 10° NNE 15:46:16 63° E 15:53:58 10° S
Cosmos 2298 Rocket 4.3 15:43:10 10° NNW 15:48:19 47° ENE 15:53:26 10° SE
Cosmos 1818 3.8 15:43:26 10° NNW 15:48:46 48° NE 15:54:02 10° ESE
NOAA 6 4.0 15:43:50 10° SSE 15:48:57 66° ENE 15:54:04 10° N
Cosmos 2150 Rocket 4.3 15:45:12 10° NNW 15:50:11 45° ENE 15:55:06 10° SE
Cosmos 2278 Rocket 2.4 15:45:37 10° NNW 15:51:10 51° NE 15:56:42 10° SE
Cosmos 2184 Rocket 4.1 15:44:53 10° N 15:51:16 62° ENE 15:57:33 10° SSE
Landsat 5 4.0 15:47:17 10° NNE 15:51:28 46° E 15:55:45 10° S
USA 215 4.2 15:46:10 10° ENE 15:51:55 32° SE 15:57:37 10° S
Cosmos 1862 3.9 15:50:18 10° N 15:54:04 36° ENE 15:57:48 10° SE
Cosmos 482 Debris 3.3 15:55:51 10° WNW 15:57:34 32° N 15:59:12 11° ENE
CZ-4B R/B 4.5 15:54:37 10° S 15:58:29 41° W 16:02:33 10° NNW
CZ-4 R/B 3.3 16:03:07 10° ENE 16:04:17 11° NE 16:05:26 10° NE
Cosmos 2360 Rocket 3.1 15:59:21 10° SW 16:04:47 48° NW 16:10:15 10° NNE
Cosmos 1125 Rocket 3.8 16:03:06 10° NNW 16:08:07 45° ENE 16:13:06 10° SE
Cosmos 1633 4.4 16:05:07 10° NNW 16:08:24 35° W 16:11:41 10° SSW
Cosmos 2208 Rocket 4.1 16:03:52 10° S 16:09:04 67° ESE 16:14:24 10° NNE
Cosmos 2219 Rocket 2.2 16:07:56 10° SSW 16:13:37 87° ESE 16:19:17 10° NNE
Cosmos 2221 2.5 16:11:37 10° S 16:15:57 75° E 16:20:17 10° NNE
Cosmos 1500 Rocket 3.5 16:11:33 10° N 16:15:58 73° E 16:20:21 10° SSE
CZ-4B R/B 3.1 16:11:14 10° SSE 16:16:34 75° ENE 16:21:53 10° NNW
Abrixas rocket 3.0 16:14:34 10° W 16:17:11 39° SSW 16:19:49 10° SE
Cosmos 1939 Rocket 3.8 16:15:17 10° ESE 16:18:28 25° ENE 16:21:41 10° N
Cosmos 1980 Rocket 4.5 16:17:10 10° NW 16:19:08 12° NNW 16:21:06 10° N
ERS-2 3.4 16:16:17 10° NE 16:19:11 22° E 16:22:06 10° SSE
SL-16 R/B 4.1 16:14:52 10° W 16:19:21 23° NW 16:23:50 10° N
FengYun 1-2 T 4.3 16:14:22 10° SE 16:19:46 55° ENE 16:25:09 10° N
SL-24 R/B - RUBIN 2 4.3 16:13:44 10° NW 16:20:12 73° NE 16:25:58 10° SE
NOAA 12 4.1 16:15:12 10° SSE 16:20:30 74° ENE 16:25:51 10° NNW
Cosmos 2237 Rocket 2.8 16:16:32 10° S 16:21:38 37° ESE 16:26:47 10° NE
ISS -2.2 16:21:20 10° SSW 16:24:07 24° SE 16:26:06 15° E
NOAA 11 4.2 16:19:19 10° SE 16:24:36 55° ENE 16:29:55 10° N
Cosmos 1869 4.0 16:20:53 10° SSW 16:24:51 58° WNW 16:28:55 10° N
USA 267 3.3 16:20:01 10° ESE 16:26:27 68° NNE 16:32:56 10° WNW
GENESIS II 4.3 16:24:12 10° NW 16:28:08 56° NE 16:31:59 10° SE
CZ-4B R/B 2.2 16:26:56 16° NE 16:28:44 27° E 16:31:25 10° SSE
YAOGAN 1 3.9 16:26:41 12° E 16:29:09 18° ENE 16:32:07 10° NNE
Cosmos 2322 4.3 16:24:11 10° SW 16:29:45 58° NW 16:35:23 10° NNE
Cosmos 540 Rocket 3.9 16:25:03 10° SW 16:30:07 63° WNW 16:35:14 10° NNE
Cosmos 2369 Rocket 3.6 16:28:59 10° N 16:32:55 18° NE 16:34:50 16° ENE
Okean-O 3.7 16:30:47 10° ESE 16:34:19 24° ENE 16:37:52 10° N
AQUARIUS 4.1 16:30:19 10° SSE 16:34:49 89° ENE 16:39:21 10° NNW
CRYOSAT 2 4.3 16:31:14 10° N 16:36:08 68° E 16:41:00 10° S
Meteor 2-2 Rocket 4.4 16:30:12 10° SSW 16:36:11 87° WNW 16:42:07 10° NNE
COSMO-SKYMED 1 3.5 16:33:45 13° NE 16:36:53 27° E 16:40:35 10° SSE
Cosmos 1743 Rocket 4.0 16:33:24 10° NNW 16:37:53 68° W 16:42:18 10° S
Cosmos 841 Rocket 4.1 16:33:17 10° SW 16:38:27 57° WNW 16:43:36 10° NNE
CORIOLIS 4.2 16:33:44 10° SSE 16:39:09 88° WSW 16:44:38 10° NNW
Cosmos 1980 3.9 16:33:56 10° S 16:39:27 54° ESE 16:44:33 12° NE
Envisat 4.1 16:35:11 10° S 16:40:05 49° W 16:45:02 10° NNW
H-2A R/B 4.0 16:38:51 10° S 16:42:58 41° W 16:46:59 10° NNW
Cosmos 2366 rocket 4.4 16:37:26 10° N 16:43:09 36° ENE 16:48:47 10° SE
H-2A R/B 3.1 16:42:58 14° ESE 16:46:21 25° ENE 16:50:30 10° N
Okean O Rocket 2.0 16:42:59 10° S 16:47:18 67° WSW 16:51:41 10° NNW
Nadezhda 1 Rocket 4.0 16:41:42 10° S 16:48:02 89° E 16:54:29 10° N
Sich 1 3.0 16:45:25 10° N 16:49:50 64° ENE 16:54:10 10° SSE
Cosmos 405 Rocket 3.9 16:50:24 10° NNW 16:54:08 47° W 16:57:55 10° S
Cosmos 2292 4.4 16:51:14 10° SSW 16:54:17 80° W 16:57:56 10° N
Cosmos 1933 4.1 16:51:17 10° SSE 16:54:51 31° E 16:55:34 29° ENE
Cosmos 2297 3.9 16:51:36 10° NNW 16:57:06 48° NE 17:02:18 11° SE
Cosmos 2154 Rocket 4.4 16:50:59 10° NNW 16:57:17 70° W 17:03:34 10° S
Cosmos 1805 Rocket 3.7 16:53:43 10° NNW 16:58:12 81° W 17:02:38 10° S
Cosmos 962 Rocket 4.4 16:55:26 10° N 17:01:49 82° E 17:08:03 10° S
Cosmos 1666 Rocket 3.5 16:59:54 10° N 17:04:15 58° ENE 17:08:36 10° SSE
Cosmos 2341 Rocket 3.9 16:58:26 10° N 17:04:44 78° E 17:11:03 10° SSE
SMAP 4.4 17:01:46 10° S 17:06:10 42° W 17:10:37 10° NNW
Cosmos 1943 Rocket 2.7 17:01:10 10° NNW 17:06:15 36° NE 17:07:56 29° E
Helios 1A Rocket 3.2 17:03:20 12° SE 17:06:51 42° ENE 17:10:41 10° N
USA 281 3.1 17:00:43 10° SE 17:07:13 69° ENE 17:13:45 10° NNW
Cosmos 2322 Rocket 4.5 17:05:07 10° WNW 17:08:30 16° NNW 17:11:53 10° N
SL-16 R/B 2.9 17:03:47 10° SSE 17:08:46 33° ESE 17:09:55 30° E
Cosmos 1151 Rocket 3.4 17:05:49 10° SSE 17:09:46 37° E 17:09:51 37° E
Cosmos 1328 Rocket 4.2 17:08:36 10° SSE 17:11:47 33° ESE 17:11:47 33° ESE
MOS 1 Rocket 4.1 17:14:13 32° ENE 17:15:26 36° E 17:20:24 10° SSE
ARGOS 3.8 17:15:45 32° ENE 17:15:45 32° ENE 17:20:26 10° N
Feng Yun 1-1 Rocket 4.5 17:13:35 10° S 17:19:24 77° WSW 17:25:07 10° NNW
NOSS 0 Rocket 4.1 17:13:14 10° SW 17:19:28 74° WNW 17:24:41 16° NNE
Cosmos 1606 2.7 17:16:18 10° SSW 17:20:12 81° W 17:23:04 18° N
Cosmos 389 Rocket 2.3 17:16:50 10° SSW 17:20:17 87° WNW 17:21:15 45° N
Cosmos 2285 Rocket 4.0 17:14:01 10° NNW 17:20:25 64° ENE 17:26:44 10° SE
CREW DRAGON DEMO-1 DEB 2.9 17:17:44 10° WNW 17:20:29 72° WNW 17:20:29 72° WNW
CZ-2C R/B 2.9 17:15:58 10° SSE 17:21:02 60° ENE 17:25:54 10° N
Cosmos 836 Rocket 4.4 17:16:01 10° SSW 17:21:18 85° ESE 17:25:00 21° NNE
Cosmos 2333 Rocket 3.7 17:17:49 10° WSW 17:22:54 33° NW 17:28:00 10° NNE
H-2A R/B 3.9 17:20:19 10° N 17:23:54 29° WNW 17:27:32 10° SW
SKYMED 2 3.4 17:22:23 22° NNE 17:25:11 79° ESE 17:29:32 10° S
Meteor 1-20 Rocket 4.2 17:20:07 10° N 17:26:01 81° ENE 17:31:52 10° SSE
Cosmos 1867 3.8 17:21:12 10° SSW 17:26:25 49° ESE 17:27:32 43° E
COSMOS 2428 4.0 17:22:47 10° WSW 17:28:05 37° NW 17:33:12 11° NNE
SL-8 Rocket 4.0 17:26:25 10° N 17:32:39 87° W 17:38:55 10° S
Cosmos 864 Rocket 4.4 17:26:47 10° N 17:33:10 77° E 17:39:26 10° SSE
Cosmos 2278 Rocket 4.1 17:30:06 10° NW 17:35:01 31° WSW 17:39:57 10° SSW
USA 215 3.2 17:32:16 34° ENE 17:35:28 88° SSE 17:42:02 10° WSW
Lacrosse 5 rocket 3.6 17:32:56 10° S 17:33:15 11° S 17:33:15 11° S
Cosmos 1633 Rocket 3.0 17:31:31 10° NNW 17:35:56 82° W 17:40:17 10° S
EO 1 Delta rocket 4.1 17:32:32 10° NNE 17:37:38 76° E 17:43:56 10° S
Cosmos 2181 Rocket 3.9 17:31:44 10° S 17:38:11 84° E 17:44:36 10° N
CZ-4 R/B 1.2 17:37:53 58° SSE 17:38:37 88° ENE 17:42:37 10° NNW
SAR-Lupe-4 3.8 17:40:58 66° NW 17:41:11 68° WNW 17:44:44 10° SSW
Cosmos 1959 Rocket 4.5 17:35:52 10° N 17:42:16 89° W 17:48:38 10° S
Meteor 1-25 Rocket 4.2 17:36:39 10° NNW 17:42:16 81° W 17:47:54 10° S
Cosmos 1821 Rocket 4.3 17:40:07 10° N 17:45:18 44° NE 17:45:18 44° NE
CZ-2D R/B 4.0 17:42:35 10° S 17:46:18 52° W 17:50:04 10° NNW
Cosmos 1241 Rocket 4.5 17:42:47 10° NW 17:49:25 79° NE 17:51:53 42° SE
ERS-2 3.8 17:50:53 20° NNW 17:52:47 32° WNW 17:56:04 10° SW
CSL-04 Debris 4.0 17:51:53 38° SSE 17:54:03 76° ENE 17:59:35 10° NNW
Cosmos 44 3.4 17:49:09 10° NW 17:54:26 88° SW 17:55:25 61° SSE
DEBRIS 3.6 17:42:13 10° W 17:55:35 88° SSW 17:56:22 66° ESE
SJ-11-01 4.5 17:57:31 59° N 17:57:31 59° N 18:01:25 10° NNW
SL-08 R/B 4.3 17:52:05 10° N 17:58:18 77° E 18:04:25 10° SSE
Cosmos 2219 Rocket 4.2 17:53:55 10° W 17:58:19 23° NW 18:02:22 11° N
ISS -1.8 17:57:16 10° WSW 17:59:04 29° WSW 17:59:04 29° WSW
CZ-4B R/B 3.8 18:00:04 17° NW 18:00:51 18° WNW 18:03:01 10° WSW
YAOGAN 1 3.0 18:03:52 47° SSW 18:04:50 60° WSW 18:09:09 10° NNW
Cosmos 2237 Rocket 3.2 18:00:18 10° SW 18:05:38 43° NW 18:08:38 24° N
USA 267 3.8 18:05:49 24° SSE 18:09:39 52° SW 18:16:00 10° WNW
Okean-O 3.6 18:06:19 10° S 18:10:33 45° W 18:14:51 10° NNW
COSMO-SKYMED 1 4.0 18:10:59 22° NNW 18:13:07 36° WNW 18:17:05 10° SW
Cosmos 2369 Rocket 2.6 18:12:19 10° NNW 18:16:39 50° N 18:16:39 50° N
CSL-04 Rocket 3.7 18:18:45 70° SW 18:19:10 75° WSW 18:24:32 10° NNW
H-2A R/B 2.5 18:23:36 39° SSW 18:25:26 60° W 18:30:37 10° NNW
Cosmos 1943 Rocket 3.1 18:44:51 10° NW 18:49:30 44° W 18:49:30 44° W
SL-16 R/B 3.1 18:47:14 10° SW 18:51:50 45° W 18:51:50 45° W
ARGOS 4.4 18:57:16 37° WNW 18:57:16 37° WNW 19:01:01 10° NNW
USA 215 4.1 19:19:37 44° NW 19:19:37 44° NW 19:24:31 10° W
